Location: Chanteloup
(48.8560°N, 2.7390°E)
Time: 03:58:01
(UTC+00:00)

YAOGAN 1 - Pass Details

Date: 24 October 2021
Orbit: 618 x 620 km, 97.9° (Epoch: 05 December)

Event Time Altitude Azimuth Distance (km) Brightness Sun altitude
Rises 17:08:31 0° 120° (ESE) 2,891 5.5 -5.0°
Reaches altitude 10° 17:11:19 10° 101° (E) 1,990 4.6 -5.5°
Maximum altitude 17:14:08 17° 60° (ENE) 1,576 4.1 -5.9°
Drops below altitude 10° 17:16:56 10° 19° (NNE) 2,000 4.9 -6.4°
Sets 17:19:45 0° 0° (N) 2,911 5.9 -6.8°
